STARLINK-32132, 60334

Orbit data source: Space-Track

STARLINK-32132, 60334 is a payload satellite owned by SpaceX/Seattle (US) in LEO that was launched on Fri, 02 Aug 2024 UTC via an FALCON 9 launch vehicle from the Air Force Eastern Test Range (AFETR). Payload-class satellites include a variety of spacecraft equipped with specific instruments for various scientific and technological missions. These include communications satellites like Starlink; space stations such as the ISS; scientific satellites like the Hubble; Earth observation satellites from companies like Planet Labs, Umbra, and HawkEye 360; GPS; miniature CubeSats for education and research; and military/defense satellites.

Loading next visibility...
Identifier
60334, 2024-136F
Orbit
LEO
Country
Flag of USUS
Related business
Manufacturer
SpaceX/Seattle
Mission
Operational Commercial Communications
Bus & Motor
STARLINK V2M, Unknown motor
Mass
730 kg wet, ~700 kg dry
Launch date (UTC)
2024-08-02 (1 year ago)
Launch vehicle
FALCON 9
Launch site
Air Force Eastern Test Range (AFETR)
Object type
Payload
Rocket body
Debris
Shape & HBR
Box + 2 Pan, 17.7 m
Radar Cross Section
33.884 m², Large (>1 m²)

Expand to show TLE details & history
Last TLE update: 14 hours ago

TLE from 14 hours ago
0 STARLINK-32132
1 60334U 24136F   25297.32192613 -.00000396  00000-0 -12349-5 0  9998
2 60334  53.1598 349.2532 0001121 118.1373 241.9741 15.30193442 68785
Epoch: 2025-10-24T07:43Z
TLE epoch observation values (Epoch: 2025-10-24T07:43:34.417Z)
Latitude
-0.00004°
Longitude
-159.60873°
Altitude
476.495 km
Speed
7.629 km/s
True Right ascension
23h 17m 00s
True Declination
0° 00' 00"
Sunlit
Object was in full shadow at epoch
Visualization orbit readout
Latitude
Unknown
Longitude
Unknown
Altitude
Unknown
Speed
Unknown
Apparent Right ascension
Unknown
Apparent Declination
Unknown
Sunlit
N/A
Visualization observer readout
Local Sidereal Time
16:33:18
Azimuth
Unknown
Elevation
Unknown
Doppler factor
Unknown
Orbital elements
Apogee altitude
476.259 km
Perigee altitude
474.723 km
Semi-major axis
6,853.628 km
Eccentricity
0.00011
Inclination
53.1598°
RAAN
349.2532°
Arg. of periapsis
118.1373°
True anomaly
241.96276°
Mean anomaly
241.9741°
Eccentric anomaly
241.96843°
Mean motion
3.82527 °/min
Orbital period
94.11 mins
BSTAR
-0.0000012349
Loading maneuver chart data...
Computing Atmospheric mass density...
Loading historical data...
Loading historical data...
Loading historical data...
Loading historical data...
Loading historical data...
Loading historical data...
Loading historical data...

Documentation

Showing up to 5 results
|